TimeCST,TemperatureF,Dew PointF,Humidity,Sea Level PressureIn,VisibilityMPH,Wind Direction,Wind SpeedMPH,Gust SpeedMPH,PrecipitationIn,Events,Conditions,WindDirDegrees,DateUTC
12:15 AM,41.0,32.0,70,30.21,10.0,South,9.2,-,N/A,,Clear,170,2013-02-18 06:15:00
12:35 AM,41.0,32.0,70,30.20,10.0,South,8.1,-,N/A,,Clear,180,2013-02-18 06:35:00
12:55 AM,41.0,32.0,70,30.20,10.0,South,6.9,-,N/A,,Clear,170,2013-02-18 06:55:00
1:15 AM,41.0,32.0,70,30.21,10.0,South,5.8,-,N/A,,Clear,170,2013-02-18 07:15:00
1:35 AM,41.0,32.0,70,30.21,10.0,South,8.1,-,N/A,,Clear,170,2013-02-18 07:35:00
1:55 AM,41.0,32.0,70,30.20,10.0,SSE,8.1,-,N/A,,Clear,160,2013-02-18 07:55:00
2:15 AM,41.0,32.0,70,30.21,10.0,South,5.8,-,N/A,,Clear,170,2013-02-18 08:15:00
2:35 AM,39.2,32.0,75,30.20,10.0,SSE,5.8,-,N/A,,Clear,160,2013-02-18 08:35:00
2:55 AM,39.2,32.0,75,30.20,10.0,South,8.1,-,N/A,,Clear,180,2013-02-18 08:55:00
3:15 AM,41.0,33.8,76,30.20,10.0,South,9.2,-,N/A,,Clear,180,2013-02-18 09:15:00
3:35 AM,39.2,32.0,75,30.20,10.0,South,8.1,-,N/A,,Clear,180,2013-02-18 09:35:00
3:55 AM,39.2,32.0,75,30.20,10.0,South,6.9,-,N/A,,Clear,170,2013-02-18 09:55:00
4:15 AM,39.2,32.0,75,30.21,10.0,South,5.8,-,N/A,,Clear,180,2013-02-18 10:15:00
4:55 AM,39.2,32.0,75,30.22,10.0,South,5.8,-,N/A,,Clear,180,2013-02-18 10:55:00
5:15 AM,39.2,32.0,75,30.22,10.0,South,5.8,-,N/A,,Clear,170,2013-02-18 11:15:00
5:35 AM,39.2,33.8,81,30.22,10.0,South,6.9,-,N/A,,Clear,170,2013-02-18 11:35:00
5:55 AM,37.4,32.0,81,30.22,10.0,SSE,5.8,-,N/A,,Clear,160,2013-02-18 11:55:00
6:15 AM,37.4,32.0,81,30.22,10.0,SSE,4.6,-,N/A,,Clear,150,2013-02-18 12:15:00
6:35 AM,37.4,32.0,81,30.22,10.0,SSE,4.6,-,N/A,,Clear,150,2013-02-18 12:35:00
6:55 AM,37.4,32.0,81,30.22,9.0,SSE,8.1,-,N/A,,Clear,150,2013-02-18 12:55:00
7:15 AM,37.4,33.8,87,30.23,10.0,SSE,5.8,-,N/A,,Clear,160,2013-02-18 13:15:00
7:35 AM,39.2,35.6,87,30.23,9.0,SSE,6.9,-,N/A,,Clear,160,2013-02-18 13:35:00
8:15 AM,42.8,37.4,81,30.24,9.0,South,9.2,-,N/A,,Clear,170,2013-02-18 14:15:00
8:35 AM,42.8,37.4,81,30.24,10.0,South,9.2,-,N/A,,Clear,180,2013-02-18 14:35:00
9:15 AM,48.2,42.8,82,30.23,9.0,South,10.4,-,N/A,,Clear,170,2013-02-18 15:15:00
9:35 AM,51.8,44.6,76,30.23,9.0,South,11.5,19.6,N/A,,Clear,170,2013-02-18 15:35:00
9:55 AM,53.6,46.4,77,30.22,10.0,South,13.8,24.2,N/A,,Clear,170,2013-02-18 15:55:00
10:15 AM,55.4,48.2,77,30.21,8.0,South,15.0,24.2,N/A,,Clear,170,2013-02-18 16:15:00
10:35 AM,57.2,50.0,77,30.20,10.0,South,17.3,28.8,N/A,,Clear,170,2013-02-18 16:35:00
11:15 AM,60.8,51.8,72,30.18,10.0,South,19.6,24.2,N/A,,Clear,180,2013-02-18 17:15:00
11:35 AM,62.6,51.8,68,30.18,9.0,SSW,18.4,26.5,N/A,,Clear,210,2013-02-18 17:35:00
11:55 AM,60.8,48.2,63,30.17,9.0,South,13.8,19.6,N/A,,Partly Cloudy,190,2013-02-18 17:55:00
12:15 PM,59.0,48.2,67,30.16,10.0,South,10.4,-,N/A,,Partly Cloudy,180,2013-02-18 18:15:00
12:35 PM,60.8,48.2,63,30.13,9.0,South,12.7,-,N/A,,Scattered Clouds,170,2013-02-18 18:35:00
12:55 PM,59.0,48.2,67,30.11,10.0,South,11.5,21.9,N/A,,Partly Cloudy,170,2013-02-18 18:55:00
1:15 PM,59.0,48.2,67,30.10,10.0,South,13.8,25.3,N/A,,Scattered Clouds,170,2013-02-18 19:15:00
1:35 PM,60.8,48.2,63,30.08,10.0,SSE,17.3,24.2,N/A,,Partly Cloudy,160,2013-02-18 19:35:00
1:55 PM,62.6,51.8,68,30.06,10.0,SSE,15.0,21.9,N/A,,Partly Cloudy,150,2013-02-18 19:55:00
2:15 PM,60.8,48.2,63,30.05,10.0,South,12.7,23.0,N/A,,Partly Cloudy,170,2013-02-18 20:15:00
2:35 PM,62.6,50.0,63,30.04,10.0,South,16.1,26.5,N/A,,Partly Cloudy,180,2013-02-18 20:35:00
2:55 PM,62.6,48.2,59,30.01,10.0,South,18.4,31.1,N/A,,Partly Cloudy,170,2013-02-18 20:55:00
3:15 PM,66.2,51.8,60,30.01,9.0,South,16.1,25.3,N/A,,Partly Cloudy,170,2013-02-18 21:15:00
3:35 PM,62.6,48.2,59,30.01,10.0,South,17.3,29.9,N/A,,Scattered Clouds,180,2013-02-18 21:35:00
3:55 PM,62.6,50.0,63,30.00,9.0,South,17.3,28.8,N/A,,Mostly Cloudy,170,2013-02-18 21:55:00
4:15 PM,64.4,50.0,59,29.99,10.0,South,21.9,29.9,N/A,,Mostly Cloudy,170,2013-02-18 22:15:00
4:35 PM,62.6,50.0,63,29.97,9.0,South,19.6,26.5,N/A,,Partly Cloudy,170,2013-02-18 22:35:00
4:55 PM,62.6,50.0,63,29.96,10.0,South,19.6,25.3,N/A,,Partly Cloudy,180,2013-02-18 22:55:00
5:15 PM,60.8,48.2,63,29.96,9.0,South,13.8,24.2,N/A,,Partly Cloudy,180,2013-02-18 23:15:00
5:35 PM,60.8,48.2,63,29.96,9.0,South,17.3,26.5,N/A,,Mostly Cloudy,180,2013-02-18 23:35:00
5:55 PM,60.8,48.2,63,29.97,9.0,South,17.3,25.3,N/A,,Overcast,190,2013-02-18 23:55:00
6:15 PM,60.8,50.0,68,29.96,10.0,South,16.1,36.8,N/A,,Overcast,180,2013-02-19 00:15:00
6:35 PM,60.8,50.0,68,29.95,10.0,South,20.7,27.6,N/A,,Overcast,180,2013-02-19 00:35:00
6:55 PM,60.8,48.2,63,29.94,10.0,South,23.0,31.1,N/A,,Mostly Cloudy,180,2013-02-19 00:55:00
7:35 PM,60.8,50.0,68,29.94,10.0,South,21.9,32.2,N/A,,Overcast,180,2013-02-19 01:35:00
7:55 PM,59.0,50.0,72,29.94,10.0,South,24.2,33.4,N/A,,Overcast,180,2013-02-19 01:55:00
8:15 PM,59.0,48.2,67,29.93,10.0,South,21.9,35.7,N/A,,Overcast,180,2013-02-19 02:15:00
8:35 PM,59.0,50.0,72,29.93,10.0,South,18.4,33.4,N/A,,Mostly Cloudy,170,2013-02-19 02:35:00
9:15 PM,57.2,48.2,72,29.91,10.0,South,20.7,35.7,N/A,,Overcast,180,2013-02-19 03:15:00
9:55 PM,51.8,46.4,82,29.93,3.0,South,15.0,26.5,0.01,Rain,Light Rain,180,2013-02-19 03:55:00
10:15 PM,51.8,46.4,82,29.94,3.0,South,10.4,16.1,0.01,Rain,Light Rain,180,2013-02-19 04:15:00
10:35 PM,51.8,46.4,82,29.94,1.8,South,6.9,-,0.07,Rain,Rain,190,2013-02-19 04:35:00
11:15 PM,50.0,48.2,94,29.97,2.0,SE,6.9,-,0.03,Rain,Light Rain,140,2013-02-19 05:15:00
11:35 PM,50.0,48.2,94,30.01,4.0,NW,6.9,-,0.05,Rain,Light Rain,320,2013-02-19 05:35:00
11:55 PM,50.0,50.0,100,30.00,2.5,East,3.5,-,0.07,Rain,Light Rain,100,2013-02-19 05:55:00